EW5462 Weather Reports


Display with metric or nautical units.
time (UTC)temp
F
wind
direction
speed
MPH
gust
MPH
rain 1hr
in
rain 24hr
in
rain mn
in
humidity
%
barometer
mb
20260509035917 86 185 4.0 6.0 0.00 0.00 0.00 22 1006.6
20260509034916 87 201 6.0 8.0 0.00 0.00 0.00 21 1006.4
20260509033917 88 197 8.0 11.0 0.00 0.00 0.00 22 1006.3
20260509033317 89 202 7.0 11.0 0.00 0.00 0.00 22 1006.3
20260509032316 89 212 5.0 8.0 0.00 0.00 0.00 25 1006.1
20260509031317 90 213 5.0 8.0 0.00 0.00 0.00 23 1006.0
20260509030316 92 213 8.0 10.0 0.00 0.00 0.00 21 1005.9
20260509025317 93 219 9.0 11.0 0.00 0.00 0.00 16 1005.6
20260509024316 94 0.0 0.0 0.00 0.00 0.00 15 1005.4
20260509023317 95 0.0 0.0 0.00 0.00 0.00 15 1005.3
20260509022316 96 0.0 0.0 0.00 0.00 0.00 14 1005.2
20260509021336 98 0.0 0.0 0.00 0.00 0.00 14 1005.1
20260509020316 99 217 1.0 4.0 0.00 0.00 0.00 13 1005.0
20260509015317 100 247 1.0 4.0 0.00 0.00 0.00 13 1005.0
20260509014316 101 218 2.0 5.0 0.00 0.00 0.00 12 1005.0
20260509013317 101 225 3.0 8.0 0.00 0.00 0.00 12 1005.0
20260509012316 102 222 4.0 7.0 0.00 0.00 0.00 11 1005.0
20260509011317 102 238 2.0 7.0 0.00 0.00 0.00 11 1005.1
20260509010317 103 225 4.0 7.0 0.00 0.00 0.00 11 1005.1
20260509005317 103 232 5.0 8.0 0.00 0.00 0.00 11 1005.1
20260509004316 103 228 2.0 6.0 0.00 0.00 0.00 10 1005.2
20260509003317 102 254 5.0 6.0 0.00 0.00 0.00 11 1005.3
20260509002317 103 258 5.0 8.0 0.00 0.00 0.00 10 1005.3
20260509001317 103 261 4.0 7.0 0.00 0.00 0.00 11 1005.4
20260509000318 104 218 5.0 7.0 0.00 0.00 0.00 11 1005.4
20260508235317 103 247 5.0 7.0 0.00 0.00 0.00 11 1005.5
20260508234316 103 265 3.0 5.0 0.00 0.00 0.00 11 1005.5
20260508233317 103 258 5.0 6.0 0.00 0.00 0.00 12 1005.6
20260508232317 103 218 7.0 8.0 0.00 0.00 0.00 12 1005.7
20260508231317 103 251 7.0 9.0 0.00 0.00 0.00 12 1005.8
20260508230317 104 230 8.0 11.0 0.00 0.00 0.00 13 1005.9
20260508225316 104 225 6.0 9.0 0.00 0.00 0.00 12 1005.9
20260508224317 104 212 5.0 9.0 0.00 0.00 0.00 12 1006.0
20260508223317 103 233 8.0 10.0 0.00 0.00 0.00 13 1006.2
20260508222316 104 231 2.0 6.0 0.00 0.00 0.00 14 1006.3
20260508221317 102 240 4.0 9.0 0.00 0.00 0.00 14 1006.5
20260508220316 102 243 9.0 12.0 0.00 0.00 0.00 14 1006.7
20260508215317 103 244 6.0 8.0 0.00 0.00 0.00 14 1006.9
20260508214317 102 253 2.0 6.0 0.00 0.00 0.00 14 1007.1
20260508214017 102 261 6.0 9.0 0.00 0.00 0.00 14 1007.1
20260508213017 102 254 7.0 8.0 0.00 0.00 0.00 14 1007.2
20260508212417 101 244 5.0 6.0 0.00 0.00 0.00 15 1007.4
20260508211417 101 219 4.0 6.0 0.00 0.00 0.00 14 1007.6
20260508210417 101 256 6.0 9.0 0.00 0.00 0.00 15 1007.7
20260508205416 101 255 5.0 6.0 0.00 0.00 0.00 15 1007.8
20260508204417 100 277 6.0 7.0 0.00 0.00 0.00 16 1008.0
20260508203417 100 277 5.0 7.0 0.00 0.00 0.00 16 1008.1
20260508202416 100 251 7.0 9.0 0.00 0.00 0.00 15 1008.2
20260508201417 100 244 5.0 9.0 0.00 0.00 0.00 17 1008.3
20260508200417 99 218 6.0 7.0 0.00 0.00 0.00 16 1008.6
20260508195417 98 231 1.0 4.0 0.00 0.00 0.00 17 1008.7
20260508194417 98 225 5.0 8.0 0.00 0.00 0.00 18 1008.9
20260508193417 98 190 5.0 7.0 0.00 0.00 0.00 18 1008.9
20260508192417 99 197 5.0 7.0 0.00 0.00 0.00 18 1009.0
20260508191417 97 205 3.0 6.0 0.00 0.00 0.00 17 1009.1
20260508191118 97 264 5.0 7.0 0.00 0.00 0.00 17 1009.1
20260508190117 98 222 8.0 11.0 0.00 0.00 0.00 19 1009.2
20260508185117 97 187 5.0 6.0 0.00 0.00 0.00 20 1009.4
20260508184116 96 202 5.0 6.0 0.00 0.00 0.00 18 1009.5
20260508183117 96 231 7.0 8.0 0.00 0.00 0.00 18 1009.6
20260508182117 96 224 10.0 10.0 0.00 0.00 0.00 18 1009.7
20260508181417 95 238 3.0 7.0 0.00 0.00 0.00 19 1009.8
20260508180417 95 210 4.0 7.0 0.00 0.00 0.00 21 1009.9
20260508175417 94 210 3.0 7.0 0.00 0.00 0.00 19 1010.0
20260508174417 93 223 1.0 4.0 0.00 0.00 0.00 20 1010.1
20260508173417 93 212 5.0 7.0 0.00 0.00 0.00 23 1010.2
20260508172417 93 185 4.0 5.0 0.00 0.00 0.00 24 1010.2
20260508171417 91 197 3.0 7.0 0.00 0.00 0.00 24 1010.2
20260508170417 91 191 4.0 6.0 0.00 0.00 0.00 23 1010.3
20260508165417 90 216 5.0 7.0 0.00 0.00 0.00 25 1010.4
20260508164417 90 186 5.0 8.0 0.00 0.00 0.00 26 1010.4
20260508163417 88 167 7.0 10.0 0.00 0.00 0.00 28 1010.5
20260508162416 88 192 5.0 11.0 0.00 0.00 0.00 29 1010.5
20260508161417 87 176 5.0 8.0 0.00 0.00 0.00 30 1010.5
20260508160416 85 148 7.0 9.0 0.00 0.00 0.00 32 1010.5
20260508155417 85 169 7.0 11.0 0.00 0.00 0.00 35 1010.5
20260508154417 83 167 9.0 11.0 0.00 0.00 0.00 37 1010.5
20260508154317 83 181 6.0 8.0 0.00 0.00 0.00 36 1010.5
20260508153317 82 171 9.0 12.0 0.00 0.00 0.00 38 1010.6
20260508152317 82 165 6.0 9.0 0.00 0.00 0.00 38 1010.6
20260508151316 80 181 5.0 9.0 0.00 0.00 0.00 39 1010.6
20260508150317 80 164 7.0 10.0 0.00 0.00 0.00 40 1010.6
20260508145317 79 172 8.0 10.0 0.00 0.00 0.00 42 1010.5
20260508144317 78 176 3.0 8.0 0.00 0.00 0.00 42 1010.5
20260508143317 77 168 7.0 11.0 0.00 0.00 0.00 45 1010.5
20260508142317 76 178 2.0 5.0 0.00 0.00 0.00 45 1010.4
20260508141316 76 179 5.0 8.0 0.00 0.00 0.00 46 1010.3
20260508140316 76 166 5.0 8.0 0.00 0.00 0.00 44 1010.1
20260508135317 75 158 6.0 7.0 0.00 0.00 0.00 42 1010.0
20260508134316 74 160 7.0 9.0 0.00 0.00 0.00 43 1009.8
20260508133316 73 168 5.0 7.0 0.00 0.00 0.00 44 1009.7
20260508132317 72 163 6.0 8.0 0.00 0.00 0.00 44 1009.6
20260508131317 72 154 5.0 8.0 0.00 0.00 0.00 44 1009.5
20260508130316 71 168 6.0 8.0 0.00 0.00 0.00 44 1009.5
20260508125317 71 160 5.0 7.0 0.00 0.00 0.00 43 1009.4
20260508124317 71 156 6.0 8.0 0.00 0.00 0.00 43 1009.3
20260508123316 71 159 5.0 8.0 0.00 0.00 0.00 43 1009.2
20260508122317 71 160 7.0 9.0 0.00 0.00 0.00 42 1009.1
20260508121316 71 165 6.0 8.0 0.00 0.00 0.00 41 1009.1
20260508120317 71 157 7.0 10.0 0.00 0.00 0.00 40 1009.1
20260508115316 71 167 6.0 10.0 0.00 0.00 0.00 41 1009.1
20260508114317 71 177 6.0 7.0 0.00 0.00 0.00 40 1009.0
20260508113316 72 183 5.0 6.0 0.00 0.00 0.00 40 1009.0
20260508112317 72 168 5.0 7.0 0.00 0.00 0.00 39 1008.9
20260508111316 72 161 6.0 9.0 0.00 0.00 0.00 37 1008.8
20260508110317 73 163 6.0 9.0 0.00 0.00 0.00 36 1008.8
20260508105316 73 161 8.0 10.0 0.00 0.00 0.00 35 1008.7
20260508103317 74 171 5.0 7.0 0.00 0.00 0.00 33 1008.8
20260508102316 73 155 7.0 10.0 0.00 0.00 0.00 32 1008.7
20260508101317 73 171 4.0 6.0 0.00 0.00 0.00 31 1008.8
20260508100316 73 178 4.0 7.0 0.00 0.00 0.00 32 1008.8
20260508095316 73 170 5.0 6.0 0.00 0.00 0.00 32 1008.8
20260508094317 73 188 2.0 4.0 0.00 0.00 0.00 32 1008.7
20260508093316 73 164 4.0 5.0 0.00 0.00 0.00 31 1008.7
20260508092317 73 216 1.0 2.0 0.00 0.00 0.00 31 1008.8
20260508091317 74 177 3.0 4.0 0.00 0.00 0.00 31 1008.9
20260508090316 74 198 3.0 5.0 0.00 0.00 0.00 30 1008.9
20260508085317 74 182 4.0 5.0 0.00 0.00 0.00 31 1008.9
20260508084817 74 184 3.0 4.0 0.00 0.00 0.00 31 1009.0
20260508083817 75 175 4.0 7.0 0.00 0.00 0.00 30 1009.0
20260508082816 76 161 6.0 8.0 0.00 0.00 0.00 30 1009.1
20260508081817 76 158 8.0 9.0 0.00 0.00 0.00 30 1009.2
20260508081017 76 171 4.0 7.0 0.00 0.00 0.00 31 1009.3
20260508080016 76 168 5.0 7.0 0.00 0.00 0.00 33 1009.4
20260508075017 76 182 4.0 5.0 0.00 0.00 0.00 33 1009.5
20260508074017 76 178 4.0 6.0 0.00 0.00 0.00 34 1009.5
20260508073016 76 171 4.0 6.0 0.00 0.00 0.00 35 1009.6
20260508072017 76 163 5.0 7.0 0.00 0.00 0.00 35 1009.5
20260508071017 75 143 5.0 5.0 0.00 0.00 0.00 36 1009.5
20260508070217 76 162 3.0 5.0 0.00 0.00 0.00 36 1009.5
20260508065216 76 174 4.0 5.0 0.00 0.00 0.00 36 1009.4
20260508064217 76 161 4.0 6.0 0.00 0.00 0.00 36 1009.6
20260508063216 76 191 2.0 5.0 0.00 0.00 0.00 36 1009.6
20260508062217 76 184 3.0 5.0 0.00 0.00 0.00 35 1009.6
20260508061217 77 211 3.0 5.0 0.00 0.00 0.00 34 1009.6
20260508060216 78 172 5.0 6.0 0.00 0.00 0.00 34 1009.3
20260508055216 78 152 7.0 8.0 0.00 0.00 0.00 32 1009.0
20260508054217 79 187 5.0 7.0 0.00 0.00 0.00 32 1009.1
20260508053216 79 191 5.0 6.0 0.00 0.00 0.00 29 1009.1
20260508052716 79 194 4.0 6.0 0.00 0.00 0.00 27 1009.1
20260508051717 80 204 3.0 6.0 0.00 0.00 0.00 26 1009.0
20260508050716 80 216 5.0 7.0 0.00 0.00 0.00 22 1009.0
20260508045717 80 207 3.0 4.0 0.00 0.00 0.00 22 1008.8
20260508044716 81 214 2.0 3.0 0.00 0.00 0.00 21 1008.6
20260508043717 81 219 3.0 4.0 0.00 0.00 0.00 21 1008.6
20260508042716 82 217 3.0 4.0 0.00 0.00 0.00 21 1008.5
20260508041717 83 222 1.0 2.0 0.00 0.00 0.00 20 1008.4